Location: ČR
(50.0000°N, 15.0000°E)
Time: 15:12:14
(UTC+00:00)

Explorer 7 - Pass Details

Date: 29 October 2021
Orbit: 483 x 675 km, 50.3° (Epoch: 27 November)

Event Time Altitude Azimuth Distance (km) Brightness Sun altitude
Rises 21:11:47 0° 274° (W) 2,676 - -49.2°
Reaches altitude 10° 21:13:57 10° 275° (W) 1,815 - -49.4°
Maximum altitude 21:18:06 86° 5° (N) 577 - -49.8°
Drops below altitude 10° 21:22:32 10° 94° (E) 1,937 - -50.1°
Sets 21:24:54 0° 95° (E) 2,873 - -50.3°
